Weather History for Key West NAF, FL

Change the Weather History Date:

Tuesday, February 19, 2013

  Actual Average Record
Temperature  
Mean Temperature 74 °F -  
Max Temperature 79 °F 76 °F 84 °F (1959)
Min Temperature 68 °F 67 °F 51 °F (1958)
Cooling Degree Days 8    
Growing Degree Days 24 (Base 50)    
Moisture  
Dew Point 64 °F    
Average Humidity 75    
Maximum Humidity 93    
Minimum Humidity 54    
Precipitation  
Precipitation 0.00 in - - ()
Sea Level Pressure  
Sea Level Pressure 30.13 in    
Wind  
Wind Speed 9 mph (East)    
Max Wind Speed 13 mph    
Max Gust Speed 21 mph    
Visibility 10 miles    
Events Rain    
Averages and records for this station are not official NWS values.
T = Trace of Precipitation, MM = Missing Value Source: NWS Daily Summary

Daily Weather History Graph

Daily Weather History Graph

Search for Another Location

Airport:

Trip Planner

Search our weather history database for the weather conditions in past years. The results will help you decide how hot, cold, wet, or windy it might be!

Date:

Astronomy

Feb. 19, 2013 Rise Set
Actual Time 6:57 AM EST 6:23 PM EST
Civil Twilight 6:34 AM EST 6:47 PM EST
Nautical Twilight 6:07 AM EST 7:13 PM EST
Astronomical Twilight 5:41 AM EST 7:40 PM EST
Moon 1:13 PM EST 2:09 AM EST
Length of Visible Light 12h 12m
Length of Day
11h 26m
Waxing Gibbous, 67% of the Moon is Illuminated
Feb 19
Waxing Gibbous
Feb 25
Full
Mar 4
Last Quarter
Mar 11
New
Mar 19
First Quarter

Hourly Weather History & Observations

Time (EST) Temp. Dew Point Humidity Pressure Visibility Wind Dir Wind Speed Gust Speed Precip Events Conditions
12:53 AM 69.1 °F 52.0 °F 54% 30.16 in 10.0 mi ESE 12.7 mph - N/A   Partly Cloudy
1:53 AM 71.1 °F 55.9 °F 59% 30.15 in 10.0 mi ESE 11.5 mph - N/A   Overcast
2:53 AM 70.0 °F 55.9 °F 61% 30.13 in 10.0 mi ESE 9.2 mph - N/A   Mostly Cloudy
3:53 AM 70.0 °F 60.1 °F 71% 30.12 in 10.0 mi East 6.9 mph - N/A   Overcast
4:53 AM 70.0 °F 61.0 °F 73% 30.11 in 10.0 mi ESE 9.2 mph - N/A   Clear
5:53 AM 70.0 °F 62.1 °F 76% 30.11 in 10.0 mi ESE 12.7 mph - N/A   Clear
6:53 AM 70.0 °F 63.0 °F 78% 30.13 in 10.0 mi ESE 11.5 mph - N/A   Partly Cloudy
7:53 AM 73.0 °F 64.0 °F 73% 30.15 in 10.0 mi ESE 6.9 mph - N/A   Mostly Cloudy
8:38 AM 71.6 °F 64.4 °F 78% 30.17 in 9.0 mi East 8.1 mph - 0.00 in Rain Light Rain
8:44 AM 71.6 °F 64.4 °F 78% 30.17 in 10.0 mi East 5.8 mph - 0.00 in   Mostly Cloudy
8:53 AM 71.1 °F 66.0 °F 84% 30.17 in 10.0 mi NNE 5.8 mph - 0.00 in   Mostly Cloudy
9:53 AM 75.9 °F 66.0 °F 71% 30.17 in 10.0 mi East 10.4 mph - N/A   Mostly Cloudy
10:53 AM 78.1 °F 66.9 °F 68% 30.17 in 10.0 mi East 10.4 mph - N/A   Scattered Clouds
11:53 AM 79.0 °F 66.9 °F 66% 30.16 in 10.0 mi SE 12.7 mph 20.7 mph N/A   Mostly Cloudy
12:53 PM 75.9 °F 68.0 °F 76% 30.14 in 10.0 mi ESE 11.5 mph - N/A   Mostly Cloudy
1:53 PM 77.0 °F 66.9 °F 71% 30.12 in 10.0 mi ESE 9.2 mph - N/A   Mostly Cloudy
2:53 PM 77.0 °F 66.9 °F 71% 30.11 in 10.0 mi ESE 9.2 mph - N/A   Mostly Cloudy
3:53 PM 77.0 °F 66.9 °F 71% 30.10 in 10.0 mi East 10.4 mph - N/A   Mostly Cloudy
4:53 PM 75.0 °F 66.9 °F 76% 30.09 in 10.0 mi ESE 6.9 mph - N/A   Scattered Clouds
5:53 PM 72.0 °F 64.9 °F 78% 30.09 in 10.0 mi East 6.9 mph - N/A   Scattered Clouds
7:53 PM 70.0 °F 64.0 °F 81% 30.12 in 10.0 mi ENE 3.5 mph - N/A   Partly Cloudy
8:53 PM 69.1 °F 64.9 °F 87% 30.12 in 10.0 mi NE 3.5 mph - N/A   Partly Cloudy
9:53 PM 68.0 °F 64.9 °F 90% 30.12 in 10.0 mi NE 3.5 mph - N/A   Clear
10:53 PM 68.0 °F 66.0 °F 93% 30.12 in 10.0 mi Calm Calm - N/A   Mostly Cloudy
11:53 PM 69.1 °F 66.0 °F 90% 30.10 in 10.0 mi ENE 6.9 mph - N/A   Clear